Time,TemperatureF,DewpointF,PressureIn,WindDirection,WindDirectionDegrees,WindSpeedMPH,WindSpeedGustMPH,Humidity,HourlyPrecipIn,Conditions,Clouds,dailyrainin,SoftwareType,DateUTC
2013-02-26 00:01:00,35.0,33.0,30.38,WSW,252,0.0,-999.0,93,-99.99,,,-99.99,,2013-02-26 08:01:00,
2013-02-26 00:11:00,34.0,32.0,30.38,WSW,252,0.0,-999.0,94,-99.99,,,-99.99,,2013-02-26 08:11:00,
2013-02-26 00:21:00,34.0,32.0,30.38,WSW,252,0.0,-999.0,94,-99.99,,,-99.99,,2013-02-26 08:21:00,
2013-02-26 00:31:00,34.0,32.0,30.38,WSW,252,0.0,-999.0,94,-99.99,,,-99.99,,2013-02-26 08:31:00,
2013-02-26 00:41:00,34.0,32.0,30.38,WSW,252,0.0,-999.0,94,-99.99,,,-99.99,,2013-02-26 08:41:00,
2013-02-26 00:52:00,34.0,32.0,30.37,WSW,252,0.0,-999.0,94,-99.99,,,-99.99,,2013-02-26 08:52:00,
2013-02-26 01:01:00,33.0,31.0,30.37,WSW,252,0.0,-999.0,94,-99.99,,,-99.99,,2013-02-26 09:01:00,
2013-02-26 01:11:00,33.0,31.0,30.37,WSW,252,0.0,-999.0,94,-99.99,,,-99.99,,2013-02-26 09:11:00,
2013-02-26 01:21:00,33.0,31.0,30.37,WSW,252,0.0,-999.0,94,-99.99,,,-99.99,,2013-02-26 09:21:00,
2013-02-26 01:31:00,32.0,30.0,30.37,WSW,252,0.0,-999.0,94,-99.99,,,-99.99,,2013-02-26 09:31:00,
2013-02-26 01:42:00,32.0,30.0,30.37,WSW,252,0.0,-999.0,94,-99.99,,,-99.99,,2013-02-26 09:42:00,
2013-02-26 01:52:00,32.0,30.0,30.37,WSW,252,0.0,-999.0,94,-99.99,,,-99.99,,2013-02-26 09:52:00,
2013-02-26 02:01:00,32.0,31.0,30.37,WSW,252,0.0,-999.0,95,-99.99,,,-99.99,,2013-02-26 10:01:00,
2013-02-26 02:11:00,32.0,31.0,30.37,WSW,252,0.0,-999.0,95,-99.99,,,-99.99,,2013-02-26 10:11:00,
2013-02-26 02:21:00,32.0,31.0,30.37,WSW,252,0.0,-999.0,95,-99.99,,,-99.99,,2013-02-26 10:21:00,
2013-02-26 02:31:00,32.0,31.0,30.37,WSW,252,0.0,-999.0,95,-99.99,,,-99.99,,2013-02-26 10:31:00,
2013-02-26 02:41:00,32.0,31.0,30.37,WSW,252,0.0,-999.0,95,-99.99,,,-99.99,,2013-02-26 10:41:00,
2013-02-26 02:52:00,32.0,31.0,30.37,WSW,252,0.0,-999.0,95,-99.99,,,-99.99,,2013-02-26 10:52:00,
2013-02-26 03:01:00,31.0,30.0,30.37,WSW,252,0.0,-999.0,95,-99.99,,,-99.99,,2013-02-26 11:01:00,
2013-02-26 03:11:00,31.0,30.0,30.37,WSW,252,0.0,-999.0,95,-99.99,,,-99.99,,2013-02-26 11:11:00,
2013-02-26 03:21:00,31.0,30.0,30.36,WSW,252,0.0,-999.0,95,-99.99,,,-99.99,,2013-02-26 11:21:00,
2013-02-26 03:31:00,31.0,30.0,30.36,WSW,252,0.0,-999.0,95,-99.99,,,-99.99,,2013-02-26 11:31:00,
2013-02-26 03:41:00,31.0,30.0,30.36,WSW,252,0.0,-999.0,95,-99.99,,,-99.99,,2013-02-26 11:41:00,
2013-02-26 03:52:00,31.0,30.0,30.36,WSW,252,0.0,-999.0,95,-99.99,,,-99.99,,2013-02-26 11:52:00,
2013-02-26 04:01:00,31.0,30.0,30.36,WSW,252,0.0,-999.0,95,-99.99,,,-99.99,,2013-02-26 12:01:00,
2013-02-26 04:11:00,31.0,30.0,30.36,WSW,252,0.0,-999.0,95,-99.99,,,-99.99,,2013-02-26 12:11:00,
2013-02-26 04:22:00,30.0,29.0,30.36,WSW,252,0.0,-999.0,95,-99.99,,,-99.99,,2013-02-26 12:22:00,
2013-02-26 04:32:00,30.0,29.0,30.37,WSW,252,0.0,-999.0,95,-99.99,,,-99.99,,2013-02-26 12:32:00,
2013-02-26 04:41:00,30.0,29.0,30.37,WSW,252,0.0,-999.0,95,-99.99,,,-99.99,,2013-02-26 12:41:00,
2013-02-26 04:52:00,30.0,29.0,30.37,WSW,252,0.0,-999.0,95,-99.99,,,-99.99,,2013-02-26 12:52:00,
2013-02-26 05:01:00,30.0,29.0,30.37,WSW,252,0.0,-999.0,95,-99.99,,,-99.99,,2013-02-26 13:01:00,
2013-02-26 05:11:00,30.0,29.0,30.37,WSW,252,0.0,-999.0,95,-99.99,,,-99.99,,2013-02-26 13:11:00,
2013-02-26 05:21:00,30.0,29.0,30.36,WSW,252,0.0,-999.0,96,-99.99,,,-99.99,,2013-02-26 13:21:00,
2013-02-26 05:31:00,30.0,29.0,30.36,WSW,252,0.0,-999.0,96,-99.99,,,-99.99,,2013-02-26 13:31:00,
2013-02-26 05:42:00,30.0,29.0,30.36,WSW,252,0.0,-999.0,96,-99.99,,,-99.99,,2013-02-26 13:42:00,
2013-02-26 05:52:00,30.0,29.0,30.36,WSW,252,0.0,-999.0,96,-99.99,,,-99.99,,2013-02-26 13:52:00,
2013-02-26 06:01:00,30.0,29.0,30.36,WSW,252,0.0,-999.0,96,-99.99,,,-99.99,,2013-02-26 14:01:00,
2013-02-26 06:11:00,30.0,29.0,30.36,WSW,252,0.0,-999.0,96,-99.99,,,-99.99,,2013-02-26 14:11:00,
2013-02-26 06:21:00,29.0,28.0,30.36,WSW,252,0.0,-999.0,95,-99.99,,,-99.99,,2013-02-26 14:21:00,
2013-02-26 06:31:00,29.0,28.0,30.36,WSW,252,0.0,-999.0,95,-99.99,,,-99.99,,2013-02-26 14:31:00,
2013-02-26 06:41:00,29.0,28.0,30.36,WSW,252,0.0,-999.0,95,-99.99,,,-99.99,,2013-02-26 14:41:00,
2013-02-26 06:52:00,29.0,28.0,30.36,WSW,252,0.0,-999.0,96,-99.99,,,-99.99,,2013-02-26 14:52:00,
2013-02-26 07:01:00,29.0,28.0,30.36,WSW,252,0.0,-999.0,96,-99.99,,,-99.99,,2013-02-26 15:01:00,
2013-02-26 07:11:00,29.0,28.0,30.36,WSW,252,0.0,-999.0,96,-99.99,,,-99.99,,2013-02-26 15:11:00,
2013-02-26 07:21:00,30.0,29.0,30.36,WSW,252,0.0,-999.0,96,-99.99,,,-99.99,,2013-02-26 15:21:00,
2013-02-26 07:31:00,30.0,29.0,30.36,WSW,252,0.0,-999.0,96,-99.99,,,-99.99,,2013-02-26 15:31:00,
2013-02-26 07:41:00,30.0,29.0,30.36,WSW,252,0.0,-999.0,96,-99.99,,,-99.99,,2013-02-26 15:41:00,
2013-02-26 07:52:00,30.0,29.0,30.35,WSW,252,0.0,-999.0,96,-99.99,,,-99.99,,2013-02-26 15:52:00,
2013-02-26 08:01:00,30.0,29.0,30.35,WSW,252,0.0,-999.0,96,-99.99,,,-99.99,,2013-02-26 16:01:00,
2013-02-26 08:11:00,30.0,29.0,30.35,WSW,252,0.0,-999.0,96,-99.99,,,-99.99,,2013-02-26 16:11:00,
2013-02-26 08:22:00,31.0,30.0,30.35,WSW,252,0.0,-999.0,96,-99.99,,,-99.99,,2013-02-26 16:22:00,
2013-02-26 08:31:00,32.0,31.0,30.35,WSW,252,0.0,-999.0,96,-99.99,,,-99.99,,2013-02-26 16:31:00,
2013-02-26 08:41:00,32.0,31.0,30.35,WSW,252,0.0,-999.0,96,-99.99,,,-99.99,,2013-02-26 16:41:00,
2013-02-26 08:52:00,33.0,32.0,30.33,East,98,0.0,-999.0,97,-99.99,,,-99.99,,2013-02-26 16:52:00,
2013-02-26 09:01:00,33.0,32.0,30.34,East,98,0.0,-999.0,97,-99.99,,,-99.99,,2013-02-26 17:01:00,
2013-02-26 09:11:00,34.0,33.0,30.34,NNW,347,0.0,-999.0,97,-99.99,,,-99.99,,2013-02-26 17:11:00,
2013-02-26 09:21:00,34.0,33.0,30.34,NNW,347,0.0,-999.0,97,-99.99,,,-99.99,,2013-02-26 17:21:00,
2013-02-26 09:32:00,34.0,33.0,30.35,NNW,347,0.0,-999.0,97,-99.99,,,-99.99,,2013-02-26 17:32:00,
2013-02-26 09:41:00,34.0,33.0,30.35,NNW,347,0.0,-999.0,97,-99.99,,,-99.99,,2013-02-26 17:41:00,
2013-02-26 09:52:00,35.0,34.0,30.35,WNW,294,0.0,-999.0,97,-99.99,,,-99.99,,2013-02-26 17:52:00,
2013-02-26 10:01:00,36.0,35.0,30.34,WNW,294,0.0,-999.0,97,-99.99,,,-99.99,,2013-02-26 18:01:00,
2013-02-26 10:12:00,36.0,35.0,30.34,WNW,294,0.0,-999.0,97,-99.99,,,-99.99,,2013-02-26 18:12:00,
2013-02-26 10:21:00,37.0,36.0,30.33,WNW,294,0.0,-999.0,98,-99.99,,,-99.99,,2013-02-26 18:21:00,
2013-02-26 10:31:00,38.0,37.0,30.32,WNW,296,1.0,-999.0,98,-99.99,,,-99.99,,2013-02-26 18:31:00,
2013-02-26 10:42:00,38.0,37.0,30.32,WNW,296,1.0,-999.0,98,-99.99,,,-99.99,,2013-02-26 18:42:00,
2013-02-26 10:52:00,41.0,40.0,30.32,WSW,244,0.0,-999.0,97,-99.99,,,-99.99,,2013-02-26 18:52:00,
2013-02-26 11:01:00,42.0,40.0,30.31,SW,221,1.0,-999.0,94,-99.99,,,-99.99,,2013-02-26 19:01:00,
2013-02-26 11:11:00,42.0,40.0,30.31,SW,221,1.0,-999.0,94,-99.99,,,-99.99,,2013-02-26 19:11:00,
2013-02-26 11:22:00,43.0,38.0,30.31,South,184,0.0,-999.0,84,-99.99,,,-99.99,,2013-02-26 19:22:00,
2013-02-26 11:31:00,44.0,38.0,30.32,WSW,253,1.0,-999.0,79,-99.99,,,-99.99,,2013-02-26 19:31:00,
2013-02-26 11:41:00,44.0,38.0,30.32,WSW,253,1.0,-999.0,79,-99.99,,,-99.99,,2013-02-26 19:41:00,
2013-02-26 11:52:00,46.0,36.0,30.32,South,187,2.0,-999.0,69,-99.99,,,-99.99,,2013-02-26 19:52:00,
2013-02-26 12:01:00,46.0,37.0,30.31,SSW,196,1.0,-999.0,70,-99.99,,,-99.99,,2013-02-26 20:01:00,
2013-02-26 12:11:00,46.0,37.0,30.31,SSW,196,1.0,-999.0,70,-99.99,,,-99.99,,2013-02-26 20:11:00,
2013-02-26 12:21:00,47.0,36.0,30.31,SW,229,0.0,-999.0,66,-99.99,,,-99.99,,2013-02-26 20:21:00,
2013-02-26 12:31:00,48.0,37.0,30.30,NNW,327,1.0,-999.0,65,-99.99,,,-99.99,,2013-02-26 20:31:00,
2013-02-26 12:41:00,48.0,37.0,30.30,NNW,327,1.0,-999.0,65,-99.99,,,-99.99,,2013-02-26 20:41:00,
2013-02-26 12:52:00,48.0,35.0,30.29,SSE,167,2.0,-999.0,60,-99.99,,,-99.99,,2013-02-26 20:52:00,
2013-02-26 13:01:00,49.0,35.0,30.30,South,172,2.0,-999.0,59,-99.99,,,-99.99,,2013-02-26 21:01:00,
2013-02-26 13:11:00,49.0,35.0,30.30,South,172,2.0,-999.0,59,-99.99,,,-99.99,,2013-02-26 21:11:00,
2013-02-26 13:21:00,49.0,36.0,30.29,SSE,148,1.0,-999.0,60,-99.99,,,-99.99,,2013-02-26 21:21:00,
2013-02-26 13:31:00,49.0,36.0,30.28,SSE,165,2.0,-999.0,60,-99.99,,,-99.99,,2013-02-26 21:31:00,
2013-02-26 13:41:00,49.0,36.0,30.28,SSE,165,2.0,-999.0,60,-99.99,,,-99.99,,2013-02-26 21:41:00,
2013-02-26 13:51:00,49.0,36.0,30.27,SSE,159,3.0,-999.0,61,-99.99,,,-99.99,,2013-02-26 21:51:00,
2013-02-26 14:01:00,49.0,36.0,30.26,ESE,105,3.0,-999.0,60,-99.99,,,-99.99,,2013-02-26 22:01:00,
2013-02-26 14:11:00,49.0,36.0,30.26,ESE,107,3.0,-999.0,60,-99.99,,,-99.99,,2013-02-26 22:11:00,
2013-02-26 14:21:00,49.0,36.0,30.26,ESE,107,3.0,-999.0,60,-99.99,,,-99.99,,2013-02-26 22:21:00,
2013-02-26 14:31:00,49.0,36.0,30.25,SE,140,2.0,-999.0,60,-99.99,,,-99.99,,2013-02-26 22:31:00,
2013-02-26 14:41:00,49.0,36.0,30.25,SE,140,2.0,-999.0,60,-99.99,,,-99.99,,2013-02-26 22:41:00,
2013-02-26 14:51:00,50.0,37.0,30.25,SSE,156,3.0,-999.0,61,-99.99,,,-99.99,,2013-02-26 22:51:00,
2013-02-26 15:01:00,51.0,38.0,30.25,ESE,103,3.0,-999.0,60,-99.99,,,-99.99,,2013-02-26 23:01:00,
2013-02-26 15:11:00,51.0,38.0,30.25,ESE,103,3.0,-999.0,60,-99.99,,,-99.99,,2013-02-26 23:11:00,
2013-02-26 15:21:00,50.0,36.0,30.24,South,171,2.0,-999.0,58,-99.99,,,-99.99,,2013-02-26 23:21:00,
2013-02-26 15:31:00,50.0,36.0,30.24,SE,144,2.0,-999.0,59,-99.99,,,-99.99,,2013-02-26 23:31:00,
2013-02-26 15:41:00,50.0,36.0,30.24,SE,144,2.0,-999.0,59,-99.99,,,-99.99,,2013-02-26 23:41:00,
2013-02-26 15:52:00,50.0,36.0,30.24,SSE,167,0.0,-999.0,58,-99.99,,,-99.99,,2013-02-26 23:52:00,
2013-02-26 16:01:00,50.0,36.0,30.24,SSE,153,1.0,-999.0,59,-99.99,,,-99.99,,2013-02-27 00:01:00,
2013-02-26 16:11:00,50.0,36.0,30.24,SSE,153,1.0,-999.0,59,-99.99,,,-99.99,,2013-02-27 00:11:00,
2013-02-26 16:21:00,50.0,36.0,30.23,SSE,158,2.0,-999.0,58,-99.99,,,-99.99,,2013-02-27 00:21:00,
2013-02-26 16:31:00,50.0,36.0,30.24,ESE,113,2.0,-999.0,58,-99.99,,,-99.99,,2013-02-27 00:31:00,
2013-02-26 16:41:00,50.0,36.0,30.24,ESE,113,2.0,-999.0,58,-99.99,,,-99.99,,2013-02-27 00:41:00,
2013-02-26 16:52:00,50.0,37.0,30.24,South,188,0.0,-999.0,61,-99.99,,,-99.99,,2013-02-27 00:52:00,
2013-02-26 17:01:00,49.0,37.0,30.23,South,188,0.0,-999.0,63,-99.99,,,-99.99,,2013-02-27 01:01:00,
2013-02-26 17:11:00,49.0,37.0,30.23,South,188,0.0,-999.0,63,-99.99,,,-99.99,,2013-02-27 01:11:00,
2013-02-26 17:21:00,49.0,37.0,30.23,South,188,0.0,-999.0,64,-99.99,,,-99.99,,2013-02-27 01:21:00,
2013-02-26 17:31:00,49.0,38.0,30.23,South,188,0.0,-999.0,65,-99.99,,,-99.99,,2013-02-27 01:31:00,
2013-02-26 17:41:00,49.0,38.0,30.23,South,188,0.0,-999.0,65,-99.99,,,-99.99,,2013-02-27 01:41:00,
2013-02-26 17:52:00,48.0,38.0,30.24,South,190,0.0,-999.0,68,-99.99,,,-99.99,,2013-02-27 01:52:00,
2013-02-26 18:01:00,48.0,38.0,30.24,South,190,0.0,-999.0,69,-99.99,,,-99.99,,2013-02-27 02:01:00,
2013-02-26 18:12:00,48.0,38.0,30.24,South,190,0.0,-999.0,69,-99.99,,,-99.99,,2013-02-27 02:12:00,
2013-02-26 18:21:00,47.0,38.0,30.23,South,190,0.0,-999.0,71,-99.99,,,-99.99,,2013-02-27 02:21:00,
2013-02-26 18:31:00,47.0,39.0,30.24,South,190,0.0,-999.0,73,-99.99,,,-99.99,,2013-02-27 02:31:00,
2013-02-26 18:41:00,47.0,39.0,30.24,South,190,0.0,-999.0,73,-99.99,,,-99.99,,2013-02-27 02:41:00,
2013-02-26 18:52:00,46.0,39.0,30.23,South,190,0.0,-999.0,76,-99.99,,,-99.99,,2013-02-27 02:52:00,
2013-02-26 19:01:00,46.0,39.0,30.22,NNW,338,0.0,-999.0,76,-99.99,,,-99.99,,2013-02-27 03:01:00,
2013-02-26 19:11:00,46.0,39.0,30.22,NNW,338,0.0,-999.0,76,-99.99,,,-99.99,,2013-02-27 03:11:00,
2013-02-26 19:21:00,45.0,39.0,30.24,North,360,0.0,-999.0,78,-99.99,,,-99.99,,2013-02-27 03:21:00,
2013-02-26 19:31:00,45.0,39.0,30.24,North,355,0.0,-999.0,79,-99.99,,,-99.99,,2013-02-27 03:31:00,
2013-02-26 19:41:00,45.0,39.0,30.24,North,355,0.0,-999.0,79,-99.99,,,-99.99,,2013-02-27 03:41:00,
2013-02-26 19:52:00,45.0,39.0,30.23,WNW,292,0.0,-999.0,80,-99.99,,,-99.99,,2013-02-27 03:52:00,
2013-02-26 20:01:00,44.0,38.0,30.23,WNW,292,0.0,-999.0,80,-99.99,,,-99.99,,2013-02-27 04:01:00,
2013-02-26 20:11:00,44.0,38.0,30.23,WNW,292,0.0,-999.0,80,-99.99,,,-99.99,,2013-02-27 04:11:00,
2013-02-26 20:21:00,44.0,39.0,30.23,WNW,293,0.0,-999.0,82,-99.99,,,-99.99,,2013-02-27 04:21:00,
2013-02-26 20:31:00,44.0,39.0,30.24,WNW,293,0.0,-999.0,83,-99.99,,,-99.99,,2013-02-27 04:31:00,
2013-02-26 20:41:00,44.0,39.0,30.24,WNW,293,0.0,-999.0,83,-99.99,,,-99.99,,2013-02-27 04:41:00,
2013-02-26 20:52:00,43.0,38.0,30.23,WNW,292,0.0,-999.0,83,-99.99,,,-99.99,,2013-02-27 04:52:00,
2013-02-26 21:01:00,43.0,38.0,30.24,WNW,292,0.0,-999.0,84,-99.99,,,-99.99,,2013-02-27 05:01:00,
2013-02-26 21:11:00,43.0,38.0,30.24,WNW,292,0.0,-999.0,84,-99.99,,,-99.99,,2013-02-27 05:11:00,
2013-02-26 21:21:00,42.0,38.0,30.24,WNW,292,0.0,-999.0,85,-99.99,,,-99.99,,2013-02-27 05:21:00,
2013-02-26 21:32:00,42.0,38.0,30.24,WNW,292,0.0,-999.0,86,-99.99,,,-99.99,,2013-02-27 05:32:00,
2013-02-26 21:41:00,42.0,38.0,30.24,WNW,292,0.0,-999.0,86,-99.99,,,-99.99,,2013-02-27 05:41:00,
2013-02-26 21:52:00,41.0,37.0,30.23,WNW,292,0.0,-999.0,86,-99.99,,,-99.99,,2013-02-27 05:52:00,
2013-02-26 22:02:00,41.0,38.0,30.24,WNW,292,0.0,-999.0,88,-99.99,,,-99.99,,2013-02-27 06:02:00,
2013-02-26 22:11:00,41.0,38.0,30.24,WNW,292,0.0,-999.0,88,-99.99,,,-99.99,,2013-02-27 06:11:00,
2013-02-26 22:21:00,40.0,37.0,30.24,WNW,292,0.0,-999.0,89,-99.99,,,-99.99,,2013-02-27 06:21:00,
2013-02-26 22:32:00,40.0,37.0,30.24,WNW,292,0.0,-999.0,89,-99.99,,,-99.99,,2013-02-27 06:32:00,
2013-02-26 22:41:00,40.0,37.0,30.24,WNW,292,0.0,-999.0,89,-99.99,,,-99.99,,2013-02-27 06:41:00,
2013-02-26 22:52:00,39.0,36.0,30.24,WNW,293,0.0,-999.0,89,-99.99,,,-99.99,,2013-02-27 06:52:00,
2013-02-26 23:01:00,39.0,36.0,30.24,WNW,292,0.0,-999.0,89,-99.99,,,-99.99,,2013-02-27 07:01:00,
2013-02-26 23:11:00,39.0,36.0,30.24,WNW,292,0.0,-999.0,89,-99.99,,,-99.99,,2013-02-27 07:11:00,
2013-02-26 23:21:00,38.0,35.0,30.24,WNW,292,0.0,-999.0,89,-99.99,,,-99.99,,2013-02-27 07:21:00,
2013-02-26 23:31:00,37.0,34.0,30.24,WNW,292,0.0,-999.0,90,-99.99,,,-99.99,,2013-02-27 07:31:00,
2013-02-26 23:41:00,37.0,34.0,30.24,WNW,292,0.0,-999.0,90,-99.99,,,-99.99,,2013-02-27 07:41:00,
2013-02-26 23:52:00,37.0,35.0,30.25,WNW,292,0.0,-999.0,92,-99.99,,,-99.99,,2013-02-27 07:52:00,